Regional Weather Roundup
Issued by NWS Burlington, VT

Home | Current Version | Previous Version | Text Only | Print | Product List | Glossary On
Versions: 1 2 3 4 5 6 7 8 9 10 11 12 13 14 15 16 17 18 19 20 21 22 23 24 25 26 27 28 29 30 31 32 33 34 35 36 37 38 39 40 41 42 43 44 45 46 47 48 49 50
000
ASUS41 KBTV 291610
RWRBTV
VERMONT REGIONAL WEATHER ROUNDUP
NATIONAL WEATHER SERVICE BURLINGTON VT
1200 PM EDT FRI MAY 29 2015

NOTE: "FAIR" INDICATES FEW OR NO CLOUDS BELOW 12,000 FEET WITH NO
SIGNIFICANT WEATHER AND/OR OBSTRUCTIONS TO VISIBILITY.

* THESE REPORTS ARE NOT UNDER NWS QUALITY CONTROL AND/OR DO NOT
  REPORT WEATHER SUCH AS PRECIPITATION AND FOG.

VTZ001>019-291700-
_____VERMONT_____


CITY           SKY/WX    TMP DP  RH WIND       PRES   REMARKS
BURLINGTON     MOSUNNY   75  54  47 CALM      30.27F
MONTPELIER     SUNNY     70  51  51 CALM      30.33F
MORRISVILLE    SUNNY     74  55  51 VRB5      30.29F
LYNDONVILLE*     N/A     72  50  46 CALM      30.31F
MIDDLEBURY*      N/A     74  56  53 SW5       30.27F
RUTLAND*       SUNNY     73  54  49 CALM      30.28F
SPRINGFIELD    SUNNY     75  52  44 E7        30.29F
HIGHGATE*        N/A     71  56  60 SW6       30.27F
NEWPORT*         N/A     69  54  59 W3        30.29F
BENNINGTON     MOSUNNY   76  58  53 VRB3      30.28F

_____LAKE CHAMPLAIN_____


CITY           SKY/WX    TMP DP  RH WIND       PRES   REMARKS

$$

NYZ007-026>031-035-052-083-291700-
_____NORTHERN NEW YORK_____


CITY           SKY/WX    TMP DP  RH WIND       PRES   REMARKS
PLATTSBURGH    SUNNY     69  56  62 SE12      30.27F
SARANAC LAKE   SUNNY     71  52  50 MISG      30.28S
MASSENA        MOSUNNY   75  57  53 W7        30.26F
OGDENSBURG*    SUNNY     79  61  53 W8        30.25F
POTSDAM*       SUNNY     75  59  57 SW3       30.26F
WATERTOWN      MOSUNNY   76  56  49 W13       30.25S
FT DRUM        MOSUNNY   75  57  53 VRB3      30.25F
ALBANY         MOSUNNY   77  55  46 VRB3      30.28F
GLENS FALLS    SUNNY     74  53  48 VRB5      30.28F

$$
NHZ002-005-011-291700-
_____NEW HAMPSHIRE_____


CITY           SKY/WX    TMP DP  RH WIND       PRES   REMARKS
LEBANON        MOSUNNY   76  55  48 CALM      30.28F
KEENE          MOSUNNY   73  57  56 CALM      30.29F
MT WASHINGTON  PTSUNNY   54  48  82 VRB5        N/A
PLYMOUTH         N/A     75  60  58 CALM      30.28F
WHITEFIELD     SUNNY     73  53  49 CALM      30.28F

$$

_____REGIONAL QUEBEC LOCATIONS_____


CITY           SKY/WX    TMP DP  RH WIND       PRES   REMARKS
MONTREAL       MOSUNNY   72  55  56 VRB2      30.26F
QUEBEC CITY    MOSUNNY   64  43  45 SE3       30.28F
SHERBROOKE     MOSUNNY   70  55  60 VRB3      30.28F

_____REGIONAL ONTARIO LOCATIONS_____


CITY           SKY/WX    TMP DP  RH WIND       PRES   REMARKS
OTTAWA         PTSUNNY   73  61  64 VRB6      30.25F

______KEY______
VSB  - VISIBILITY IN MILES
WCI  - WIND CHILL INDEX
HX   - HEAT INDEX
$$
NNNN


USA.gov is the U.S. government's official web portal to all federal, state and local government web resources and services.